Location: Unspecified
(0.0000°N, 0.0000°E)
Time: 04:25:15
(UTC+02:00)

Milstar 3 - Visible Passes

Search period start: 02 September 2015 00:00
Search period end: 12 September 2015 00:00
Orbit: 1095 x 5150 km, 28.2° (Epoch: 03 August)

Date Brightness Start Highest point End Pass type
(mag) Time Alt. Az. Time Alt. Az. Time Alt. Az.
02 Sep 3.9 05:28:45 51° S 05:30:21 56° SSE 05:45:17 10° ENE visible
02 Sep 5.4 22:49:22 10° SW 22:54:00 13° SSW 22:55:14 12° SSW visible
03 Sep 4.8 04:31:06 31° ESE 04:31:06 31° ESE 04:39:01 10° E visible
03 Sep 4.5 07:04:42 16° WSW 07:13:43 70° NNW 07:34:39 10° NE visible
03 Sep 5.2 21:40:00 10° WSW 21:51:09 22° SSW 21:57:32 12° SSE visible
04 Sep 3.8 06:07:02 45° WSW 06:10:53 89° SSE 06:28:11 10° ENE visible
04 Sep 5.3 20:30:42 10° W 20:48:18 36° SSW 20:57:48 10° SSE visible
05 Sep 3.8 05:09:23 61° SE 05:09:23 61° SE 05:22:15 10° ENE visible
05 Sep 5.4 22:27:20 10° SW 22:32:42 13° SSW 22:35:42 11° S visible
06 Sep 5.1 04:11:43 25° E 04:11:43 25° E 04:16:48 10° E visible
06 Sep 4.3 06:45:18 24° W 06:51:59 61° NNW 07:10:29 10° NE visible
06 Sep 5.3 21:17:20 10° WSW 21:29:33 22° SSW 21:36:59 10° SSE visible
07 Sep 3.4 05:47:39 66° W 05:49:18 81° NNW 06:04:38 10° ENE visible
07 Sep 5.4 20:07:14 10° W 20:26:19 34° SSW 20:36:36 10° SSE visible
08 Sep 4.1 04:50:00 51° E 04:50:00 51° E 04:59:27 10° ENE visible
08 Sep 5.0 07:23:49 10° W 07:33:54 42° NNW 07:52:46 10° NE visible
08 Sep 5.4 22:05:00 10° SW 22:11:24 14° SSW 22:15:53 10° S visible
09 Sep 5.5 03:52:20 17° E 03:52:20 17° E 03:54:45 10° ENE visible
09 Sep 4.1 06:25:55 33° W 06:30:27 52° NNW 06:46:33 10° NE visible
09 Sep 5.5 20:54:29 10° WSW 21:07:55 22° SSW 21:15:58 10° SSE visible
10 Sep 3.5 05:28:15 69° NNW 05:28:15 69° NNW 05:41:20 10° NE visible
11 Sep 4.7 04:30:34 35° ENE 04:30:34 35° ENE 04:36:52 10° ENE visible
11 Sep 4.8 07:04:10 14° WNW 07:12:23 36° NNW 07:28:33 10° NE visible
11 Sep 5.5 21:42:21 10° SW 21:50:05 15° SSW 21:55:23 10° SSE visible
